Terminal Aerodrome Forecast
Issued by NWS Miami, FL

Home | Current Version | Previous Version | Text Only | Print | Product List | Glossary On
Versions: 1 2 3 4 5 6 7 8 9 10 11 12 13 14 15 16 17 18 19 20 21 22 23 24 25
000
FTUS42 KMFL 230529
TAFAPF
TAF
KAPF 230529Z 2306/2406 10005KT P6SM FEW025 BKN250
     FM231400 15012G18KT P6SM VCSH SCT025 BKN050 OVC250
     FM231900 19011KT P6SM VCSH SCT025 BKN100 OVC200
     FM240100 14006KT P6SM VCSH SCT020 BKN100 OVC200=

USA.gov is the U.S. government's official web portal to all federal, state and local government web resources and services.